User: anonymous   Login
Location: Newark
(35.4036°N, 80.4356°W)
Time: 18:53:30
(UTC+00:00)
Language:

PRISM - Orbit

View from above orbital plane
View from above orbital plane
View from above satellite
View from above satellite

Ground track
Ground track

The orbit data is extracted from the following two-line orbital elements,

1 33493U 09002B   19264.79716448  .00000564  00000-0  54911-4 0  9990
2 33493  98.1199 189.3568 0014098 224.9907 135.0172 14.96730113579371
Epoch (UTC): 21 September 2019 19:07:55
Eccentricity: 0.0014098
inclination: 98.1199°
perigee height: 567 km
apogee height: 587 km
right ascension of ascending node: 189.3568°
argument of perigee: 224.9907°
revolutions per day: 14.96730113
mean anomaly at epoch: 135.0172°
orbit number at epoch: 57937

The dashed part of the orbit path shows where the satellite is in the earth's shadow,  

DLR